Home > Weather > Xiamen > Past weeks

Flag for China Weather for the Past 2 Weeks in Xiamen, Fujian, China

Now
68 °F

Passing clouds.


Feels Like: 68 °F
Forecast: 49 / 65 °F
Wind: 8 mph from Southeast

Location: Xiamen Airport

Current Time: Feb 9, 2016 at 5:05:14 PM

Latest Report: Feb 9, 2016 at 4:00 PM


Visibility: N/A

Pressure: 30.12 "Hg

Humidity: 23%

Dew point: 28 °F

Location of XiamenLocation

Historic Weather in Xiamen — Graph

°F

Xiamen Temperature Yesterday

Maximum temperature yesterday: 66 °F (at 1:00 PM)
Minimum temperature yesterday: 43 °F (at 2:00 AM)
Average temperature yesterday: 52 °F

High & Low Weather Summary for the Past Weeks

 TemperatureHumidityPressure
High72 °F (Feb 9, 3:00 PM)100% (Jan 27, 12:00 PM)30.51 "Hg (Jan 27, 12:00 PM)
Low37 °F (Jan 26, 1:00 AM)15% (Feb 9, 3:00 PM)30.07 "Hg (Jan 28, 4:00 PM)
Average53 °F78%30.24 "Hg
* Reported Jan 25 3:00 PM — Feb 9 3:00 PM, Xiamen, Weather by CustomWeather, © 2016

Note: Actual official high and low records may vary slightly from our data, if they occured in-between our weather recording intervals... More about our weather records

Advertising

Xiamen Weather History for the Previous 24 Hours

 ConditionsComfort  
Time TempWeatherWind HumidityBarometerVisibility
3:00 PM
Tue, Feb 9
72 °FSunny.1 mph15%30.12 "Hg10 mi
2:00 PM70 °FPassing clouds.3 mph16%30.15 "HgN/A
1:00 PM68 °FSunny.3 mph20%30.18 "Hg10 mi
12:00 PM64 °FPassing clouds.3 mph26%30.21 "HgN/A
11:00 AM61 °FSunny.3 mph42%30.24 "Hg10 mi
10:00 AM57 °FPassing clouds.3 mph59%30.27 "HgN/A
9:00 AM52 °FSunny.1 mph72%30.27 "Hg10 mi
8:00 AM50 °FPassing clouds.3 mph82%30.24 "HgN/A
7:00 AM45 °FClear.1 mph93%30.21 "Hg6 mi
6:00 AM45 °FClear.1 mph93%30.21 "Hg4 mi
5:00 AM45 °FClear.1 mph93%30.18 "Hg4 mi
4:00 AM45 °FClear.1 mph93%30.18 "Hg4 mi
3:00 AM45 °FClear.No wind87%30.18 "Hg5 mi
2:00 AM46 °FClear.1 mph87%30.21 "Hg5 mi
1:00 AM48 °FClear.1 mph87%30.21 "Hg4 mi
12:00 AM48 °FClear.1 mph82%30.21 "Hg4 mi
11:00 PM
Mon, Feb 8
48 °FClear.1 mph82%30.24 "Hg6 mi
10:00 PM48 °FClear.3 mph71%30.24 "Hg10 mi
9:00 PM48 °FClear.3 mph71%30.24 "Hg10 mi
8:00 PM52 °FPassing clouds.3 mph58%30.24 "HgN/A
7:00 PM55 °FPassing clouds.3 mph44%30.21 "HgN/A
6:00 PM57 °FPassing clouds.3 mph41%30.21 "HgN/A
5:00 PM61 °FPassing clouds.8 mph36%30.18 "HgN/A
Weather by CustomWeather, © 2016

See weather overviewHow to use our weather pages